Погода в Дигоре

Турция     40°22′40″N   43°24′54″E
темп.,
°C
ветер,
м/с
пор.,
м/с
влажн.,
%
обл.,
%
осадки,
мм/ч
давл.,
гПа
погр.,
м
17 сентября, пт
пт1700:00+14сз46610 0.0 1011101
03:00+11сз45740 0.0 101298
06:00+10сз45811 0.2 1013107
09:00+15ссз445460 0.6 1012569
12:00+21всв352889 0.0 10082820
15:00+21с2424100 0.1 10071821
18:00+16ссв684856 0.4 1011806
21:00+12ссз6878100 2.5 1015444
18 сентября, сб
сб1800:00+12ссз3473100 0.1 1014210
03:00+11ссз3376100 0.1 101463
06:00+10ссз238127 0.0 101533
09:00+14св21593 0.0 1015678
12:00+20вюв343474 0.0 10122062
15:00+21в252582 0.0 10102609
18:00+18всв223396 0.0 101119
21:00+14ссз455720 0.0 101594
19 сентября, вс
вс1900:00+12ссз346917 0.0 101690
03:00+11ссз33765 0.0 101654
06:00+10ссз23802 0.0 101737
09:00+16св215326 0.0 1016549
12:00+21юв353098 0.0 10132056
15:00+23юв462183 0.0 10102818
18:00+21юв252777 0.0 1011171
21:00+15ссз46535 0.1 1015128
20 сентября, пн
пн2000:00+13ссз46665 0.1 1016133
03:00+12сз34685 0.2 101658
06:00+11сз33695 0.0 101638
09:00+17с33420 0.0 1015649
12:00+22ссв352748 0.0 10132533
15:00+21ссв132626 0.1 10122134
18:00+19ссв463278 0.1 1013270
21:00+16сз44465 0.1 101658
21 сентября, вт
вт2100:00+14сз34535 0.0 101749
03:00+13сз33575 0.0 101637
06:00+12сз33600 0.0 101733
09:00+19ссз34360 0.0 1016935
12:00+23ссз45175 0.0 10142537
15:00+24с56187 0.0 10133216
18:00+19с6102949 0.0 1014316
21:00+16ссз474699 0.0 1017191